This demonstration page uses our WeatherBlox Daily Observations layout. Learn more.

Left ArrowRight Arrow

47.50024, -111.30081

Hourly Observations for January 15, 2016

Temp ( °F °C ) Dew Point ( °F °C ) Humidity (%) Winds ( mph kmh ) Pressure ( in mb ) Visibility ( mi km ) Precip ( " mm )
12:53 am 00:53 Cloudy 28 -2.2 22 -5.6 78 78 W 6 9 29.84 1011 10 16 0.00 0.00
1:53 am 01:53 Mostly Cloudy 25 -3.9 19 -7.2 78 78 WSW 5 7 29.84 1011 10 16 0.00 0.00
2:53 am 02:53 Partly Cloudy 24 -4.4 17 -8.3 75 75 WSW 5 7 29.85 1011 10 16 0.00 0.00
3:53 am 03:53 Mostly Cloudy 23 -5 17 -8.3 78 78 SW 8 13 29.85 1011 10 16 0.00 0.00
4:53 am 04:53 Mostly Cloudy 22 -5.6 15 -9.4 75 75 SW 8 13 29.84 1011 10 16 0.00 0.00
5:53 am 05:53 Cloudy 24 -4.4 18 -7.8 77 77 SSW 10 17 29.84 1011 10 16 0.00 0.00
6:53 am 06:53 Cloudy 25 -3.9 18 -7.8 75 75 SW 9 15 29.86 1011 10 16 0.00 0.00
7:53 am 07:53 Cloudy 23 -5 17 -8.3 78 78 SW 9 15 29.88 1012 10 16 0.00 0.00
8:53 am 08:53 Cloudy 25 -3.9 18 -7.8 75 75 SW 6 9 29.89 1012 10 16 0.00 0.00
9:53 am 09:53 Cloudy 27 -2.8 19 -7.2 72 72 SW 8 13 29.92 1013 10 16 0.00 0.00
10:53 am 10:53 Cloudy 28 -2.2 20 -6.7 72 72 NNW 9 15 29.95 1014 10 16 0.00 0.00
11:53 am 11:53 Cloudy with Light Snow 25 -3.9 20 -6.7 81 81 NNW 14 22 29.98 1015 6 10 0.00 0.03
12:27 pm 12:27 Cloudy 25 -3.9 20 -6.7 81 81 NW 10 17 30.03 1017 10 16 0.00 0.03
12:53 pm 12:53 Cloudy 25 -3.9 20 -6.7 81 81 NNW 13 20 29.99 1016 9 14 0.00 0.03
1:04 pm 13:04 Cloudy 25 -4 19 -7 80 80 NNW 12 19 30.03 1017 10 16 0.00 0.00
1:11 pm 13:11 Cloudy 25 -3.9 20 -6.7 81 81 N 9 15 30.03 1017 10 16 0.00 0.00
1:53 pm 13:53 Cloudy 24 -4.4 19 -7.2 81 81 N 8 13 30.02 1017 10 16 0.00 0.00
2:51 pm 14:51 Cloudy 23 -5 18 -8 80 80 NNE 7 11 30.09 1019 10 16 0.00 0.00
2:53 pm 14:53 Cloudy 23 -5 18 -7.8 81 81 NNE 7 11 30.03 1017 10 16 0.00 0.00
3:11 pm 15:11 Cloudy 23 -5 18 -7.8 81 81 N 6 9 30.09 1019 10 16 0.00 0.00
3:53 pm 15:53 Cloudy 23 -5 18 -7.8 81 81 NNE 6 9 30.05 1018 10 16 0.00 0.00
4:53 pm 16:53 Cloudy 21 -6.1 18 -7.8 88 88 NNE 6 9 30.06 1018 10 16 0.00 0.00
5:53 pm 17:53 Cloudy 20 -6.7 17 -8.3 89 89 N 5 7 30.08 1019 10 16 0.00 0.00
6:19 pm 18:19 Cloudy 20 -6.7 17 -8.3 89 89 N 7 11 30.15 1021 10 16 0.00 0.00
6:30 pm 18:30 Cloudy 21 -6 18 -8 86 86 NNE 6 9 30.12 1020 10 16 0.00 0.00
6:46 pm 18:46 Cloudy 21 -6 18 -8 86 86 NNE 7 11 30.12 1020 10 16 0.00 0.00
6:53 pm 18:53 Cloudy 21 -6.1 18 -7.8 88 88 N 8 13 30.07 1018 10 16 0.00 0.00
7:53 pm 19:53 Cloudy 20 -6.7 17 -8.3 89 89 NE 6 9 30.09 1019 10 16 0.00 0.00
8:14 pm 20:14 Cloudy 19 -7 18 -8 93 93 NE 7 11 30.15 1021 10 16 0.00 0.00
8:53 pm 20:53 Cloudy 19 -7.2 16 -8.9 88 88 ENE 8 13 30.10 1019 10 16 0.00 0.00
9:53 pm 21:53 Cloudy 18 -7.8 16 -8.9 92 92 NE 9 15 30.10 1019 9 14 0.00 0.00
10:53 pm 22:53 Cloudy 17 -8.3 14 -10 88 88 NE 10 17 30.12 1020 10 16 0.00 0.00
11:53 pm 23:53 Cloudy 16 -8.9 13 -10.6 88 88 ENE 9 15 30.15 1021 10 16 0.00 0.00

Powered by AerisWeather